Flag for Finland Weather past 2 weeks in Lappeenranta, Finland

Now
41 °F

Passing clouds.


Feels Like: 36 °F
Forecast: 38 / 43 °F
Wind: 7 mph from North

Location: Lappeenranta

Current Time: Apr 25, 2015 at 11:58:24 AM

Latest Report: Apr 25, 2015 at 11:20 AM


Visibility: N/A

Pressure: 29.80 "Hg

Humidity: 70%

Dew point: 32 °F

Location of LappeenrantaLocation

Historic Weather in Lappeenranta — Graph

°F

Lappeenranta temperature yesterday

Maximum temperature yesterday: 48 °F (at 4:20 PM)
Minimum temperature yesterday: 30 °F (at 5:20 AM)
Average temperature yesterday: 38 °F

Past Weeks' High & Low Weather Summary

 TemperatureHumidityPressure
High59 °F (Apr 12, 2:50 PM)100% (Apr 13, 1:50 AM)30.04 "Hg (Apr 13, 1:50 AM)
Low27 °F (Apr 14, 4:50 AM)34% (Apr 10, 2:50 PM)29.06 "Hg (Apr 23, 10:20 AM)
Average39 °F72%29.63 "Hg
* Reported Apr 10 10:20 AM — Apr 25 10:20 AM, Lappeenranta, Weather by CustomWeather, © 2015

Note: Actual official high and low records may vary slightly from our data, if they occured in-between our weather recording intervals... More about our weather records

Advertising

Lappeenranta weather history for previous 24 hours

 ConditionsComfort  
Time TempWeatherWind HumidityBarometerVisibility
10:20 AM
Sat, Apr 25
39 °FPartly sunny.7 mph75%29.77 "HgN/A
9:50 AM37 °FOvercast.6 mph81%29.77 "HgN/A
9:20 AM36 °FOvercast.7 mph87%29.77 "HgN/A
8:50 AM36 °FOvercast.8 mph87%29.74 "HgN/A
8:20 AM36 °FLow clouds.7 mph87%29.74 "HgN/A
7:50 AM36 °FLow clouds.7 mph87%29.71 "HgN/A
7:20 AM36 °FPartly sunny.9 mph87%29.71 "HgN/A
6:50 AM36 °FMostly cloudy.8 mph87%29.68 "HgN/A
6:20 AM36 °FPartly sunny.9 mph87%29.68 "HgN/A
5:50 AM36 °FLow clouds.7 mph87%29.68 "HgN/A
5:20 AM36 °FLow clouds.8 mph87%29.65 "HgN/A
4:50 AM36 °FLow clouds.8 mph87%29.65 "HgN/A
4:20 AM36 °FMostly cloudy.8 mph87%29.65 "HgN/A
3:50 AM36 °FOvercast.7 mph87%29.62 "HgN/A
2:50 AM34 °FClear.6 mph93%29.62 "Hg10 mi
2:20 AM34 °FPassing clouds.6 mph93%29.59 "HgN/A
1:50 AM36 °FPassing clouds.6 mph87%29.59 "HgN/A
1:20 AM36 °FPartly cloudy.6 mph87%29.59 "HgN/A
12:50 AM36 °FPartly cloudy.6 mph87%29.59 "HgN/A
12:20 AM34 °FPassing clouds.5 mph93%29.56 "HgN/A
11:50 PM
Fri, Apr 24
36 °FOvercast.5 mph87%29.56 "HgN/A
11:20 PM36 °FClear.6 mph93%29.56 "Hg10 mi
10:50 PM36 °FPassing clouds.5 mph87%29.56 "HgN/A
10:20 PM36 °FClear.6 mph93%29.56 "Hg10 mi
9:50 PM36 °FSprinkles. Cloudy.7 mph93%29.53 "HgN/A
9:20 PM37 °FSprinkles. Broken clouds.7 mph81%29.53 "HgN/A
8:50 PM39 °FPassing clouds.9 mph75%29.53 "HgN/A
8:20 PM41 °FPassing clouds.6 mph66%29.50 "HgN/A
7:50 PM41 °FSunny.2 mph66%29.47 "Hg10 mi
7:20 PM41 °FSunny.3 mph70%29.47 "Hg10 mi
6:50 PM41 °FPassing clouds.5 mph70%29.47 "HgN/A
6:20 PM39 °FPassing clouds.8 mph81%29.47 "HgN/A
5:50 PM41 °FBroken clouds.7 mph76%29.47 "HgN/A
5:20 PM39 °FPassing clouds.10 mph75%29.47 "HgN/A
4:50 PM43 °FPassing clouds.9 mph61%29.45 "HgN/A
4:20 PM48 °FPassing clouds.14 mph37%29.45 "HgN/A
3:50 PM46 °FPassing clouds.13 mph43%29.42 "HgN/A
3:20 PM46 °FPassing clouds.14 mph43%29.42 "HgN/A
2:50 PM45 °FScattered clouds.15 mph46%29.42 "HgN/A
2:20 PM45 °FPassing clouds.10 mph49%29.42 "HgN/A
1:50 PM46 °FPartly sunny.14 mph50%29.42 "HgN/A
1:20 PM43 °FBroken clouds.10 mph53%29.42 "HgN/A
12:50 PM43 °FPartly sunny.6 mph66%29.42 "HgN/A
12:20 PM43 °FPartly sunny.15 mph57%29.42 "HgN/A
11:50 AM43 °FPartly sunny.14 mph57%29.42 "HgN/A
11:20 AM43 °FPartly sunny.15 mph61%29.39 "HgN/A
Weather by CustomWeather, © 2015

See weather overviewHow to use our weather pages